{"data":{"norad_id":56449,"epoch":"2026-09-20T13:52:47.486496Z","epoch_age_seconds":105107,"freshness":"FRESH","line1":"1 56449U 23064B   26263.57832739 -.00000371  00000+0 -23296-4 0  9994","line2":"2 56449  70.0002  13.2688 0003257 268.3773  91.7013 14.98335581184438","mean_motion":14.98335581,"eccentricity":0.0003257,"inclination_deg":70.0002,"raan_deg":13.2688,"arg_perigee_deg":268.3773,"mean_anomaly_deg":91.7013,"bstar":-2.3296e-5,"rev_number":18443,"period_min":96.106641146367,"perigee_km":569.77496001245,"apogee_km":574.30230441928,"semimajor_km":6950.1756322159,"source":"CELESTRAK","updated_at":"2026-09-21T09:00:33.441069Z"}}